KA3BQE-13 Weather Reports


Display with metric or nautical units.
time (UTC)temp
F
wind
direction
speed
MPH
gust
MPH
rain 1hr
in
rain 24hr
in
rain mn
in
humidity
%
barometer
mb
20260905234700 84 313 1.0 4.0 0.00 0.00 0.00 80 1015.3
20260905234155 84 343 4.0 5.0 0.00 0.00 0.00 79 1015.3
20260905233650 85 330 0.0 5.0 0.00 0.00 0.00 78 1015.2
20260905233149 86 350 2.0 6.0 0.00 0.00 0.00 77 1015.5
20260905232645 86 350 3.0 5.0 0.00 0.00 0.00 76 1015.3
20260905232140 86 344 4.0 7.0 0.00 0.00 0.00 75 1015.4
20260905231635 86 10 2.0 8.0 0.00 0.00 0.00 77 1015.1
20260905231131 86 346 5.0 6.0 0.00 0.00 0.00 77 1015.2
20260905230627 87 346 5.0 8.0 0.00 0.00 0.00 76 1015.1
20260905230125 87 301 1.0 5.0 0.00 0.00 0.00 75 1015.1
20260905225618 87 294 2.0 4.0 0.00 0.00 0.00 74 1015.1
20260905225113 87 307 5.0 6.0 0.00 0.00 0.00 73 1015.0
20260905224608 87 304 5.0 6.0 0.00 0.00 0.00 73 1014.8
20260905224107 88 0 2.0 5.0 0.00 0.00 0.00 74 1015.1
20260905223605 88 339 1.0 9.0 0.00 0.00 0.00 73 1015.3
20260905223101 88 33 2.0 5.0 0.00 0.00 0.00 74 1015.2
20260905222601 88 314 2.0 9.0 0.00 0.00 0.00 72 1015.1
20260905222056 88 350 5.0 9.0 0.00 0.00 0.00 72 1015.0
20260905221552 88 251 2.0 10.0 0.00 0.00 0.00 72 1015.3
20260905221048 88 316 6.0 7.0 0.00 0.00 0.00 71 1015.0
20260905220543 88 334 3.0 7.0 0.00 0.00 0.00 73 1015.0
20260905220040 89 310 3.0 7.0 0.00 0.00 0.00 72 1015.1
20260905215539 89 332 3.0 6.0 0.00 0.00 0.00 73 1015.2
20260905215035 89 327 6.0 9.0 0.00 0.00 0.00 71 1014.9
20260905214531 89 167 1.0 7.0 0.00 0.00 0.00 72 1015.0
20260905214026 89 342 5.0 9.0 0.00 0.00 0.00 71 1014.7
20260905213521 89 303 4.0 4.0 0.00 0.00 0.00 73 1014.8
20260905213017 90 304 2.0 7.0 0.00 0.00 0.00 71 1015.0
20260905212511 90 341 3.0 5.0 0.00 0.00 0.00 71 1014.9
20260905212010 89 335 2.0 6.0 0.00 0.00 0.00 72 1015.0
20260905211506 91 347 2.0 8.0 0.00 0.00 0.00 71 1015.0
20260905211002 91 328 5.0 9.0 0.00 0.00 0.00 70 1015.0
20260905210457 90 327 5.0 5.0 0.00 0.00 0.00 70 1015.1
20260905205956 89 297 2.0 5.0 0.00 0.00 0.00 73 1015.3
20260905205451 90 332 2.0 7.0 0.00 0.00 0.00 72 1015.2
20260905204950 91 6 3.0 6.0 0.00 0.00 0.00 69 1015.2
20260905203945 91 351 4.0 5.0 0.00 0.00 0.00 69 1015.3
20260905203441 92 348 4.0 8.0 0.00 0.00 0.00 66 1015.2
20260905202936 93 44 4.0 4.0 0.00 0.00 0.00 68 1015.2
20260905202431 92 329 2.0 3.0 0.00 0.00 0.00 68 1015.3
20260905201927 91 329 4.0 8.0 0.00 0.00 0.00 68 1015.0
20260905201422 91 343 2.0 9.0 0.00 0.00 0.00 69 1015.1
20260905200921 94 320 5.0 5.0 0.00 0.00 0.00 69 1015.2
20260905200418 93 269 1.0 3.0 0.00 0.00 0.00 69 1015.3
20260905195915 91 326 2.0 4.0 0.00 0.00 0.00 69 1015.4
20260905195411 91 345 2.0 5.0 0.00 0.00 0.00 70 1015.5
20260905194907 92 308 2.0 6.0 0.00 0.00 0.00 72 1015.4
20260905194405 92 310 2.0 4.0 0.00 0.00 0.00 69 1015.2
20260905193900 92 317 3.0 4.0 0.00 0.00 0.00 69 1015.3
20260905193355 91 342 5.0 6.0 0.00 0.00 0.00 71 1015.3
20260905192850 90 329 2.0 4.0 0.00 0.00 0.00 72 1015.3
20260905192346 91 330 3.0 8.0 0.00 0.00 0.00 72 1015.5
20260905191846 93 345 3.0 8.0 0.00 0.00 0.00 67 1015.6
20260905191345 93 328 6.0 6.0 0.00 0.00 0.00 67 1015.5
20260905190843 92 323 2.0 6.0 0.00 0.00 0.00 70 1015.7
20260905190337 93 6 3.0 4.0 0.00 0.00 0.00 69 1015.6
20260905185835 92 338 2.0 4.0 0.00 0.00 0.00 72 1015.4
20260905185331 91 305 2.0 4.0 0.00 0.00 0.00 72 1015.7
20260905184829 94 304 2.0 3.0 0.00 0.00 0.00 68 1015.7
20260905184330 94 288 0.0 3.0 0.00 0.00 0.00 67 1015.9
20260905183828 92 5 2.0 6.0 0.00 0.00 0.00 69 1016.0
20260905183324 91 332 4.0 5.0 0.00 0.00 0.00 71 1015.7
20260905182824 92 338 3.0 6.0 0.00 0.00 0.00 70 1015.8
20260905182323 93 346 3.0 5.0 0.00 0.00 0.00 67 1015.9
20260905181819 94 354 3.0 6.0 0.00 0.00 0.00 68 1015.8
20260905181313 95 340 6.0 6.0 0.00 0.00 0.00 65 1016.1
20260905180812 95 315 2.0 5.0 0.00 0.00 0.00 66 1016.0
20260905180307 94 1 3.0 5.0 0.00 0.00 0.00 64 1016.0
20260905175803 95 302 3.0 6.0 0.00 0.00 0.00 67 1016.0
20260905175257 94 332 2.0 3.0 0.00 0.00 0.00 64 1016.1
20260905174752 93 244 2.0 6.0 0.00 0.00 0.00 68 1016.2
20260905174248 93 341 4.0 6.0 0.00 0.00 0.00 66 1016.1
20260905173744 93 331 6.0 11.0 0.00 0.00 0.00 67 1016.2
20260905173239 94 269 0.0 4.0 0.00 0.00 0.00 68 1016.2
20260905172733 94 320 3.0 5.0 0.00 0.00 0.00 67 1016.3
20260905172232 94 321 6.0 7.0 0.00 0.00 0.00 66 1016.2
20260905171729 93 284 1.0 3.0 0.00 0.00 0.00 68 1016.2
20260905171224 95 344 3.0 5.0 0.00 0.00 0.00 64 1016.1
20260905170716 96 309 4.0 5.0 0.00 0.00 0.00 63 1016.2
20260905170215 95 257 2.0 3.0 0.00 0.00 0.00 65 1016.4
20260905165710 94 0 3.0 4.0 0.00 0.00 0.00 63 1016.2
20260905165205 94 344 6.0 7.0 0.00 0.00 0.00 65 1016.3
20260905164659 94 313 2.0 4.0 0.00 0.00 0.00 64 1016.4
20260905164159 95 310 2.0 4.0 0.00 0.00 0.00 65 1016.3
20260905163655 94 257 2.0 3.0 0.00 0.00 0.00 64 1016.7
20260905163151 94 359 6.0 6.0 0.00 0.00 0.00 62 1016.3
20260905162647 93 333 2.0 6.0 0.00 0.00 0.00 65 1016.3
20260905162147 93 261 3.0 3.0 0.00 0.00 0.00 65 1016.3
20260905161647 92 250 1.0 4.0 0.00 0.00 0.00 64 1016.3
20260905161144 94 335 2.0 3.0 0.00 0.00 0.00 65 1016.5
20260905160639 93 238 2.0 4.0 0.00 0.00 0.00 64 1016.4
20260905160132 95 233 2.0 2.0 0.00 0.00 0.00 62 1016.3
20260905155627 94 339 1.0 3.0 0.00 0.00 0.00 64 1016.2
20260905155125 94 251 2.0 3.0 0.00 0.00 0.00 64 1016.2
20260905154620 93 246 2.0 6.0 0.00 0.00 0.00 64 1016.2
20260905154116 93 316 2.0 4.0 0.00 0.00 0.00 66 1016.2
20260905153612 93 310 3.0 6.0 0.00 0.00 0.00 64 1016.4
20260905153107 92 289 2.0 5.0 0.00 0.00 0.00 68 1016.1
20260905152602 92 255 1.0 5.0 0.00 0.00 0.00 68 1016.2
20260905152056 92 249 0.0 2.0 0.00 0.00 0.00 67 1016.3
20260905151551 92 239 4.0 5.0 0.00 0.00 0.00 66 1016.2
20260905151047 91 234 4.0 6.0 0.00 0.00 0.00 68 1016.2
20260905150542 90 251 3.0 6.0 0.00 0.00 0.00 70 1016.4
20260905150040 90 230 5.0 7.0 0.00 0.00 0.00 69 1016.1
20260905145533 90 213 1.0 3.0 0.00 0.00 0.00 71 1016.2
20260905145033 89 221 0.0 3.0 0.00 0.00 0.00 75 1016.1
20260905144528 89 280 2.0 4.0 0.00 0.00 0.00 74 1016.1
20260905144027 89 233 3.0 3.0 0.00 0.00 0.00 75 1015.9
20260905143526 89 228 3.0 4.0 0.00 0.00 0.00 73 1015.9
20260905143021 88 275 2.0 4.0 0.00 0.00 0.00 76 1015.9
20260905142520 87 240 2.0 4.0 0.00 0.00 0.00 77 1015.9
20260905142015 87 209 3.0 5.0 0.00 0.00 0.00 77 1016.0
20260905141515 87 240 2.0 3.0 0.00 0.00 0.00 79 1016.0
20260905141012 86 232 3.0 4.0 0.00 0.00 0.00 79 1015.9
20260905140506 85 238 2.0 4.0 0.00 0.00 0.00 80 1016.2
20260905140005 85 235 2.0 4.0 0.00 0.00 0.00 81 1016.0
20260905135501 84 237 3.0 3.0 0.00 0.00 0.00 82 1016.1
20260905134956 83 240 3.0 4.0 0.00 0.00 0.00 83 1016.1
20260905134455 83 237 3.0 3.0 0.00 0.00 0.00 85 1016.0
20260905133954 82 242 2.0 4.0 0.00 0.00 0.00 85 1016.3
20260905133450 83 253 2.0 3.0 0.00 0.00 0.00 84 1016.2
20260905132943 82 227 3.0 4.0 0.00 0.00 0.00 84 1016.0
20260905132438 82 233 3.0 4.0 0.00 0.00 0.00 85 1015.9
20260905131934 81 257 2.0 4.0 0.00 0.00 0.00 86 1016.1
20260905131430 81 234 4.0 5.0 0.00 0.00 0.00 85 1015.8
20260905130930 80 255 2.0 4.0 0.00 0.00 0.00 88 1016.1
20260905130429 80 239 2.0 4.0 0.00 0.00 0.00 88 1015.8
20260905125929 79 241 3.0 3.0 0.00 0.00 0.00 90 1015.7
20260905125424 79 249 4.0 4.0 0.00 0.00 0.00 90 1016.0
20260905124919 79 231 2.0 4.0 0.00 0.00 0.00 91 1015.9
20260905124416 79 265 1.0 3.0 0.00 0.00 0.00 90 1015.9
20260905123916 78 245 2.0 3.0 0.00 0.00 0.00 91 1015.7
20260905123413 78 285 2.0 4.0 0.00 0.00 0.00 92 1015.7
20260905122908 78 239 2.0 3.0 0.00 0.00 0.00 92 1015.6
20260905122407 77 243 2.0 3.0 0.00 0.00 0.00 93 1015.5
20260905121903 76 239 2.0 3.0 0.00 0.00 0.00 95 1015.6
20260905121358 76 265 2.0 5.0 0.00 0.00 0.00 97 1015.5
20260905120858 75 241 2.0 2.0 0.00 0.00 0.00 99 1015.4
20260905120357 74 268 1.0 2.0 0.00 0.00 0.00 99 1015.5
20260905115853 73 309 0.0 1.0 0.00 0.00 0.00 99 1015.3
20260905115352 73 317 0.0 1.0 0.00 0.00 0.00 99 1015.3
20260905114847 73 30 0.0 1.0 0.00 0.00 0.00 99 1015.2
20260905114341 73 325 1.0 2.0 0.00 0.00 0.00 99 1015.3
20260905113839 73 297 0.0 1.0 0.00 0.00 0.00 99 1015.2
20260905113335 73 344 0.0 1.0 0.00 0.00 0.00 99 1015.1
20260905112830 73 296 0.0 1.0 0.00 0.00 0.00 99 1015.2
20260905112325 73 321 0.0 2.0 0.00 0.00 0.00 99 1015.2
20260905111820 73 335 1.0 1.0 0.00 0.00 0.00 99 1015.2
20260905111315 73 326 1.0 1.0 0.00 0.00 0.00 99 1015.3
20260905110815 73 274 0.0 2.0 0.00 0.00 0.00 99 1015.3
20260905110314 73 329 1.0 2.0 0.00 0.00 0.00 99 1015.0
20260905105810 73 283 0.0 2.0 0.00 0.00 0.00 99 1014.9
20260905105308 73 347 0.0 1.0 0.00 0.00 0.00 99 1015.3
20260905104803 73 326 1.0 1.0 0.00 0.00 0.00 99 1015.2
20260905104300 73 351 1.0 1.0 0.00 0.00 0.00 99 1015.2
20260905103759 73 298 0.0 1.0 0.00 0.00 0.00 99 1015.2
20260905103255 74 305 0.0 1.0 0.00 0.00 0.00 99 1015.2
20260905102750 74 258 0.0 1.0 0.00 0.00 0.00 99 1015.2
20260905102247 74 281 0.0 2.0 0.00 0.00 0.00 99 1015.3
20260905101746 74 348 2.0 2.0 0.00 0.00 0.00 99 1015.3
20260905101245 74 341 2.0 2.0 0.00 0.00 0.00 99 1015.1
20260905100740 74 98 0.0 1.0 0.00 0.00 0.00 99 1015.3
20260905100236 74 333 0.0 2.0 0.00 0.00 0.00 99 1015.1
20260905095729 74 342 2.0 3.0 0.00 0.00 0.00 99 1015.3
20260905095229 74 254 0.0 1.0 0.00 0.00 0.00 99 1015.1
20260905094724 74 315 0.0 1.0 0.00 0.00 0.00 99 1015.4
20260905094219 74 324 0.0 2.0 0.00 0.00 0.00 99 1015.2
20260905093719 74 14 1.0 2.0 0.00 0.00 0.00 99 1015.3
20260905093215 74 325 0.0 2.0 0.00 0.00 0.00 99 1015.2
20260905092710 74 312 0.0 2.0 0.00 0.00 0.00 99 1015.3
20260905092206 74 336 1.0 2.0 0.00 0.00 0.00 99 1015.4
20260905091700 74 315 0.0 2.0 0.00 0.00 0.00 99 1015.4
20260905091200 74 309 1.0 2.0 0.00 0.00 0.00 99 1015.2
20260905090659 74 305 0.0 2.0 0.00 0.00 0.00 99 1015.2
20260905090155 74 325 1.0 2.0 0.00 0.00 0.00 99 1015.2
20260905085653 74 330 1.0 2.0 0.00 0.00 0.00 99 1015.1
20260905085148 74 317 0.0 2.0 0.00 0.00 0.00 99 1015.3
20260905084643 74 302 0.0 2.0 0.00 0.00 0.00 99 1015.3
20260905084138 73 323 0.0 2.0 0.00 0.00 0.00 99 1015.4
20260905083638 74 332 2.0 2.0 0.00 0.00 0.00 99 1015.1
20260905083134 74 333 0.0 2.0 0.00 0.00 0.00 99 1015.3
20260905082630 73 326 0.0 1.0 0.00 0.00 0.00 99 1015.3
20260905082126 74 329 2.0 2.0 0.00 0.00 0.00 99 1015.4
20260905081620 74 313 1.0 2.0 0.00 0.00 0.00 99 1015.3
20260905081114 75 301 1.0 2.0 0.00 0.00 0.00 99 1015.2
20260905080609 74 273 2.0 2.0 0.00 0.00 0.00 99 1015.3
20260905080109 74 312 1.0 2.0 0.00 0.00 0.00 99 1015.1
20260905075608 75 308 1.0 2.0 0.00 0.00 0.00 99 1015.2
20260905075102 75 321 2.0 2.0 0.00 0.00 0.00 99 1015.2
20260905074602 74 281 0.0 1.0 0.00 0.00 0.00 99 1015.6
20260905074057 75 330 1.0 2.0 0.00 0.00 0.00 99 1015.4
20260905073553 75 336 1.0 2.0 0.00 0.00 0.00 99 1015.3
20260905073048 74 321 1.0 2.0 0.00 0.00 0.00 99 1015.4
20260905072547 75 341 1.0 2.0 0.00 0.00 0.00 99 1015.5
20260905072043 75 284 0.0 2.0 0.00 0.00 0.00 99 1015.5
20260905071540 75 310 1.0 2.0 0.00 0.00 0.00 99 1015.3
20260905071034 75 306 0.0 2.0 0.00 0.00 0.00 99 1015.6
20260905070530 74 277 1.0 2.0 0.00 0.00 0.00 99 1015.7
20260905070026 75 311 2.0 2.0 0.00 0.00 0.00 99 1015.7
20260905065523 75 325 0.0 2.0 0.00 0.00 0.00 99 1015.6
20260905065019 75 308 0.0 2.0 0.00 0.00 0.00 99 1015.6
20260905064519 75 313 1.0 2.0 0.00 0.00 0.00 99 1015.6
20260905064014 75 323 0.0 2.0 0.00 0.00 0.00 99 1015.4
20260905063513 75 30 0.0 2.0 0.00 0.00 0.00 99 1015.5
20260905063010 75 293 0.0 2.0 0.00 0.00 0.00 99 1015.6
20260905062509 75 336 1.0 2.0 0.00 0.00 0.00 99 1015.6
20260905062004 75 323 0.0 2.0 0.00 0.00 0.00 99 1015.8
20260905061459 76 344 1.0 2.0 0.00 0.00 0.00 99 1015.8
20260905060958 76 309 0.0 2.0 0.00 0.00 0.00 99 1016.0
20260905060455 76 89 0.0 2.0 0.00 0.00 0.00 99 1015.8
20260905055954 76 331 2.0 2.0 0.00 0.00 0.00 99 1015.7
20260905055454 75 104 0.0 1.0 0.00 0.00 0.00 99 1015.9
20260905054949 75 0 2.0 3.0 0.00 0.00 0.00 99 1015.9
20260905054445 76 329 2.0 2.0 0.00 0.00 0.00 99 1015.7
20260905053944 76 343 0.0 2.0 0.00 0.00 0.00 99 1015.8
20260905053439 76 351 1.0 1.0 0.00 0.00 0.00 99 1016.0
20260905052935 76 331 1.0 2.0 0.00 0.00 0.00 99 1015.8
20260905052434 75 41 0.0 2.0 0.00 0.00 0.00 99 1015.9
20260905051934 75 334 1.0 2.0 0.00 0.00 0.00 99 1015.7
20260905051424 76 334 0.0 2.0 0.00 0.00 0.00 99 1015.7
20260905050922 76 29 0.0 1.0 0.00 0.00 0.00 99 1015.6
20260905050417 76 333 0.0 2.0 0.00 0.00 0.00 99 1015.9
20260905045912 76 344 2.0 2.0 0.00 0.00 0.00 99 1015.8
20260905045407 76 336 1.0 1.0 0.00 0.00 0.00 98 1015.8
20260905044903 75 282 0.0 1.0 0.00 0.00 0.00 98 1015.8
20260905044357 76 327 0.0 1.0 0.00 0.00 0.00 98 1015.8
20260905043856 76 332 1.0 2.0 0.00 0.00 0.00 98 1015.9
20260905043351 76 347 0.0 1.0 0.00 0.00 0.00 98 1015.8
20260905042846 76 69 0.0 1.0 0.00 0.00 0.00 98 1015.9
20260905042346 76 344 1.0 2.0 0.00 0.00 0.00 98 1015.7
20260905041841 76 353 0.0 2.0 0.00 0.00 0.00 98 1015.8
20260905041337 76 342 2.0 2.0 0.00 0.00 0.00 98 1015.6
20260905040832 76 357 0.0 2.0 0.00 0.00 0.00 97 1015.8
20260905040330 76 328 2.0 2.0 0.00 0.00 0.00 97 1015.7
20260905035825 76 82 1.0 1.0 0.00 0.00 0.00 97 1016.0
20260905035320 76 312 0.0 2.0 0.00 0.00 0.00 97 1015.5
20260905034817 76 340 1.0 2.0 0.00 0.00 0.00 97 1015.9
20260905034312 77 331 1.0 2.0 0.00 0.00 0.00 96 1015.6
20260905033810 77 322 0.0 1.0 0.00 0.00 0.00 96 1015.7
20260905033306 76 76 0.0 1.0 0.00 0.00 0.00 96 1015.9
20260905032800 77 303 0.0 2.0 0.00 0.00 0.00 96 1015.8
20260905032256 77 333 2.0 2.0 0.00 0.00 0.00 96 1015.9
20260905031750 77 336 2.0 2.0 0.00 0.00 0.00 95 1016.0
20260905031246 77 352 0.0 2.0 0.00 0.00 0.00 96 1015.9
20260905030741 77 342 1.0 2.0 0.00 0.00 0.00 96 1015.9
20260905030236 77 25 0.0 1.0 0.00 0.00 0.00 96 1015.9
20260905025731 77 295 1.0 2.0 0.00 0.00 0.00 96 1015.8
20260905025227 77 309 2.0 2.0 0.00 0.00 0.00 95 1015.9
20260905024722 77 302 0.0 2.0 0.00 0.00 0.00 95 1015.8
20260905024218 77 343 0.0 1.0 0.00 0.00 0.00 95 1016.0
20260905023713 77 10 0.0 1.0 0.00 0.00 0.00 95 1016.1
20260905023213 78 335 1.0 2.0 0.00 0.00 0.00 95 1015.9
20260905022712 78 325 1.0 2.0 0.00 0.00 0.00 95 1015.7
20260905022208 78 336 1.0 1.0 0.00 0.00 0.00 95 1015.7
20260905021706 78 309 0.0 0.0 0.00 0.00 0.00 96 1015.8
20260905021202 78 328 1.0 2.0 0.00 0.00 0.00 96 1015.6
20260905020657 78 337 2.0 2.0 0.00 0.00 0.00 95 1015.5
20260905020152 78 341 1.0 2.0 0.00 0.00 0.00 94 1015.4
20260905015650 79 309 0.0 1.0 0.00 0.00 0.00 94 1015.4
20260905015145 79 339 1.0 2.0 0.00 0.00 0.00 94 1015.4
20260905014638 79 326 2.0 2.0 0.00 0.00 0.00 94 1015.2
20260905014134 79 340 1.0 1.0 0.00 0.00 0.00 94 1015.4
20260905013631 79 340 1.0 2.0 0.00 0.00 0.00 94 1015.1
20260905013127 79 327 2.0 2.0 0.00 0.00 0.00 93 1015.2
20260905012626 79 55 0.0 0.0 0.00 0.00 0.00 93 1015.1
20260905012123 79 354 1.0 2.0 0.00 0.00 0.00 94 1015.3
20260905011619 79 8 0.0 1.0 0.00 0.00 0.00 95 1015.2
20260905011115 80 346 1.0 1.0 0.00 0.00 0.00 94 1015.1
20260905010614 80 353 1.0 2.0 0.00 0.00 0.00 94 1015.2
20260905010110 80 356 2.0 2.0 0.00 0.00 0.00 93 1015.1
20260905005606 80 352 0.0 0.0 0.00 0.00 0.00 93 1015.1
20260905005101 80 355 1.0 1.0 0.00 0.00 0.00 93 1015.1
20260905004556 80 1 2.0 2.0 0.00 0.00 0.00 93 1015.0
20260905004051 80 352 1.0 2.0 0.00 0.00 0.00 93 1014.9
20260905003547 81 348 0.0 1.0 0.00 0.00 0.00 92 1015.0
20260905003043 81 358 1.0 1.0 0.00 0.00 0.00 92 1014.9
20260905002538 82 22 0.0 1.0 0.00 0.00 0.00 92 1015.0
20260905002032 82 0 0.0 1.0 0.00 0.00 0.00 91 1014.8
20260905001527 82 347 0.0 2.0 0.00 0.00 0.00 91 1015.0
20260905001026 83 327 1.0 2.0 0.00 0.00 0.00 89 1015.0
20260905000522 84 321 1.0 2.0 0.00 0.00 0.00 88 1015.1
20260905000018 85 322 1.0 1.0 0.00 0.00 0.00 86 1015.1
20260904235512 85 327 0.0 1.0 0.00 0.00 0.00 85 1014.9
20260904235007 86 338 1.0 2.0 0.00 0.00 0.00 84 1015.1